Location: Étang Rond
(42.7927°N, 1.0661°E)
Time: 22:18:52
(UTC+00:00)

USA 276 - Visible Passes

Search period start: 15 February 2026 00:00
Search period end: 25 February 2026 00:00
Orbit: 366 x 369 km, 50.0° (Epoch: 12 July)

Date Brightness Start Highest point End Pass type
(mag) Time Alt. Az. Time Alt. Az. Time Alt. Az.
20 Feb 2.7 06:14:45 10° N 06:15:08 11° NNE 06:15:31 10° NE visible
21 Feb 2.4 06:00:58 11° NNW 06:01:37 14° NNE 06:02:20 10° ENE visible
22 Feb 1.8 05:47:57 20° NNE 05:48:03 20° NNE 05:48:59 10° E visible
23 Feb 2.8 05:35:00 19° E 05:35:00 19° E 05:35:31 10° E visible
